Mineral Point, WI

7:33 AM CST on November 19, 2017 (GMT -0600)
Iowa County

Weather History for KMRJ - January, 2014

Change the Weather History Date:

Monday, January 20, 2014

  Actual Average (KLNR) Record (KLNR)
Temperature  
Mean Temperature 22 °F -  
Max Temperature 35 °F 24 °F 37 °F (2017)
Min Temperature 8 °F 8 °F -26 °F (2008)
Degree Days  
Heating Degree Days 42    
Moisture  
Dew Point 19 °F    
Average Humidity 75    
Maximum Humidity 86    
Minimum Humidity 57    
Precipitation  
Precipitation 0.00 in - - ()
Sea Level Pressure  
Sea Level Pressure 29.87 in    
Wind  
Wind Speed 10 mph (NNW)    
Max Wind Speed 21 mph    
Max Gust Speed 28 mph    
Visibility 8 miles    
Events Snow    
Averages and records for this station are not official NWS values.
T = Trace of Precipitation, MM = Missing Value Source: NWS Daily Summary

Daily Weather History Graph

Daily Weather History Graph

Search for Another Location

Airport or City:

Trip Planner

Search our weather history database for the weather conditions in past years. The results will help you decide how hot, cold, wet, or windy it might be!

Date:

Astronomy

Jan. 20, 2014 Rise Set
Actual Time 7:26 AM CST 4:58 PM CST
Civil Twilight 6:55 AM CST 5:29 PM CST
Nautical Twilight 6:20 AM CST 6:03 PM CST
Astronomical Twilight 5:46 AM CST 6:37 PM CST
Moon 9:41 PM CST (1/20) 9:18 AM CST (1/20)
Length of Visible Light 10h 34m
Length of Day
9h 32m
Waning Gibbous, 82% of the Moon is Illuminated
Jan 20
Waning Gibbous
Jan 23
Last Quarter
Jan 30
New
Feb 6
First Quarter
Feb 14
Full

Hourly Weather History & Observations

Time (CST) Temp. Windchill Dew Point Humidity Pressure Visibility Wind Dir Wind Speed Gust Speed Precip Events Conditions
12:15 AM 35.6 °F 28.6 °F 28.4 °F 75% 29.62 in 10.0 mi WNW 9.2 mph 16.1 mph N/A   Overcast
12:35 AM 35.6 °F 27.1 °F 28.4 °F 75% 29.63 in 10.0 mi NW 12.7 mph 21.9 mph N/A   Overcast
12:55 AM 35.6 °F 28.0 °F 28.4 °F 75% 29.64 in 10.0 mi NW 10.4 mph 17.3 mph N/A   Overcast
1:15 AM 35.6 °F 28.0 °F 28.4 °F 75% 29.65 in 10.0 mi NW 10.4 mph 17.3 mph N/A   Overcast
1:35 AM 33.8 °F 25.8 °F 26.6 °F 75% 29.66 in 10.0 mi NNW 10.4 mph - N/A   Overcast
1:55 AM 33.8 °F 25.8 °F 26.6 °F 75% 29.68 in 10.0 mi NW 10.4 mph - N/A   Overcast
2:15 AM 33.8 °F 27.7 °F 26.6 °F 75% 29.69 in 10.0 mi NW 6.9 mph - N/A   Overcast
2:35 AM 33.8 °F 27.7 °F 26.6 °F 75% 29.70 in 10.0 mi NNW 6.9 mph - N/A   Overcast
2:55 AM 33.8 °F 27.0 °F 26.6 °F 75% 29.71 in 10.0 mi NNW 8.1 mph - N/A   Overcast
3:15 AM 33.8 °F 27.7 °F 26.6 °F 75% 29.71 in 10.0 mi NW 6.9 mph - N/A   Overcast
3:35 AM 33.8 °F 28.6 °F 26.6 °F 75% 29.71 in 10.0 mi NW 5.8 mph - N/A   Overcast
3:55 AM 32.0 °F 27.5 °F 26.6 °F 80% 29.72 in 10.0 mi NW 4.6 mph - N/A   Overcast
4:15 AM 32.0 °F 25.6 °F 26.6 °F 80% 29.71 in 10.0 mi West 6.9 mph - N/A   Overcast
4:35 AM 32.0 °F 26.4 °F 24.8 °F 75% 29.72 in 10.0 mi West 5.8 mph - N/A   Scattered Clouds
4:55 AM 30.2 °F 22.6 °F 23.0 °F 75% 29.73 in 10.0 mi WNW 8.1 mph - N/A   Clear
5:15 AM 32.0 °F 27.5 °F 23.0 °F 69% 29.73 in 10.0 mi WNW 4.6 mph - N/A   Mostly Cloudy
5:35 AM 30.2 °F 23.4 °F 23.0 °F 75% 29.73 in 10.0 mi West 6.9 mph - N/A   Overcast
5:55 AM 28.4 °F 20.4 °F 23.0 °F 80% 29.74 in 10.0 mi West 8.1 mph - N/A   Mostly Cloudy
6:15 AM 30.2 °F 23.4 °F 23.0 °F 75% 29.75 in 10.0 mi West 6.9 mph - N/A   Mostly Cloudy
6:35 AM 30.2 °F 22.6 °F 23.0 °F 75% 29.75 in 10.0 mi West 8.1 mph - N/A   Overcast
6:55 AM 30.2 °F 24.3 °F 23.0 °F 75% 29.76 in 10.0 mi WSW 5.8 mph - N/A   Overcast
7:15 AM 30.2 °F 24.3 °F 23.0 °F 75% 29.77 in 10.0 mi WSW 5.8 mph - N/A   Overcast
7:35 AM 30.2 °F 24.3 °F 23.0 °F 75% 29.77 in 10.0 mi WSW 5.8 mph - N/A   Overcast
7:55 AM 30.2 °F 23.4 °F 23.0 °F 75% 29.78 in 10.0 mi WSW 6.9 mph - N/A   Overcast
8:15 AM 30.2 °F 22.6 °F 23.0 °F 75% 29.78 in 10.0 mi WSW 8.1 mph - N/A   Overcast
8:35 AM 28.4 °F 19.7 °F 23.0 °F 80% 29.79 in 10.0 mi WSW 9.2 mph - N/A   Overcast
8:55 AM 28.4 °F 19.1 °F 23.0 °F 80% 29.80 in 10.0 mi West 10.4 mph - N/A   Overcast
9:15 AM 30.2 °F 22.6 °F 24.8 °F 80% 29.81 in 10.0 mi WSW 8.1 mph - N/A   Overcast
9:35 AM 30.2 °F 20.8 °F 24.8 °F 80% 29.82 in 10.0 mi West 11.5 mph - N/A   Overcast
9:55 AM 30.2 °F 21.9 °F 24.8 °F 80% 29.84 in 10.0 mi West 9.2 mph - N/A   Overcast
10:15 AM 30.2 °F 20.2 °F 24.8 °F 80% 29.85 in 10.0 mi West 12.7 mph - N/A   Overcast
10:35 AM 32.0 °F 22.5 °F 26.6 °F 80% 29.86 in 10.0 mi West 12.7 mph - N/A   Overcast
10:55 AM 32.0 °F 22.1 °F 26.6 °F 80% 29.86 in 10.0 mi West 13.8 mph 17.3 mph N/A   Overcast
11:15 AM 32.0 °F 23.6 °F 26.6 °F 80% 29.85 in 10.0 mi West 10.4 mph - N/A   Overcast
11:35 AM 32.0 °F 23.6 °F 26.6 °F 80% 29.85 in 10.0 mi West 10.4 mph - N/A   Overcast
11:55 AM 32.0 °F 24.2 °F 26.6 °F 80% 29.85 in 10.0 mi West 9.2 mph - N/A   Overcast
12:15 PM 32.0 °F 22.1 °F 26.6 °F 80% 29.85 in 10.0 mi West 13.8 mph - N/A   Overcast
12:35 PM 32.0 °F 22.5 °F 26.6 °F 80% 29.85 in 10.0 mi WNW 12.7 mph - N/A Snow Light Snow
12:55 PM 32.0 °F 24.2 °F 23.0 °F 69% 29.85 in 7.0 mi NNE 9.2 mph - N/A Snow Light Snow
1:15 PM 30.2 °F 23.4 °F 23.0 °F 75% 29.85 in 7.0 mi NNE 6.9 mph - N/A Snow Light Snow
1:35 PM 30.2 °F 24.3 °F 23.0 °F 75% 29.86 in 10.0 mi NNE 5.8 mph - N/A Snow Light Snow
1:55 PM 28.4 °F 21.2 °F 23.0 °F 80% 29.87 in 4.0 mi NNE 6.9 mph - N/A Snow Light Snow
2:10 PM 28.4 °F 20.4 °F 23.0 °F 80% 29.87 in 10.0 mi NNE 8.1 mph - N/A   Overcast
2:35 PM 28.4 °F 20.4 °F 21.2 °F 74% 29.88 in 7.0 mi NNE 8.1 mph - N/A Snow Light Snow
2:55 PM 26.6 °F 16.8 °F 21.2 °F 80% 29.89 in 10.0 mi NNE 10.4 mph - N/A   Overcast
3:15 PM 26.6 °F 16.8 °F 19.4 °F 74% 29.90 in 3.0 mi NE 10.4 mph - N/A Snow Light Snow
3:35 PM 26.6 °F 17.5 °F 19.4 °F 74% 29.91 in 5.0 mi NNE 9.2 mph - N/A Snow Light Snow
3:55 PM 24.8 °F 14.6 °F 19.4 °F 80% 29.92 in 7.0 mi NE 10.4 mph - N/A   Overcast
4:15 PM 23.0 °F 13.9 °F 17.6 °F 80% 29.94 in 4.0 mi NNE 8.1 mph - N/A Snow Light Snow
4:35 PM 23.0 °F 13.9 °F 19.4 °F 86% 29.94 in 2.5 mi NE 8.1 mph - N/A Snow Light Snow
4:55 PM 21.2 °F 8.9 °F 17.6 °F 86% 29.96 in 2.0 mi NE 12.7 mph 19.6 mph N/A Snow Light Snow
5:15 PM 19.4 °F 6.6 °F 14.0 °F 80% 29.97 in 5.0 mi NE 12.7 mph 17.3 mph N/A Snow Light Snow
5:35 PM 19.4 °F 6.0 °F 12.2 °F 74% 29.98 in 5.0 mi NE 13.8 mph 19.6 mph N/A Snow Light Snow
5:55 PM 19.4 °F 6.6 °F 12.2 °F 74% 30.00 in 5.0 mi NE 12.7 mph - N/A   Haze
6:15 PM 17.6 °F 5.0 °F 12.2 °F 79% 30.00 in 5.0 mi NE 11.5 mph - N/A Snow Light Snow
6:35 PM 17.6 °F 5.0 °F 12.2 °F 79% 30.02 in 5.0 mi NE 11.5 mph - N/A Snow Light Snow
6:55 PM 17.6 °F 5.7 °F 12.2 °F 79% 30.02 in 4.0 mi NE 10.4 mph - N/A Snow Light Snow
7:15 PM 17.6 °F 2.2 °F 12.2 °F 79% 30.03 in 5.0 mi NNE 17.3 mph 21.9 mph N/A Snow Light Snow
7:35 PM 15.8 °F -1.5 °F 8.6 °F 73% 30.03 in 4.0 mi NNE 20.7 mph 27.6 mph N/A Snow Light Snow
7:55 PM 15.8 °F 0.3 °F 8.6 °F 73% 30.06 in 3.0 mi NNE 16.1 mph 24.2 mph N/A Snow Light Snow
8:15 PM 14.0 °F -0.2 °F 8.6 °F 79% 30.07 in 5.0 mi NNE 12.7 mph - N/A   Haze
8:35 PM 14.0 °F -2.0 °F 8.6 °F 79% 30.07 in 2.5 mi NNE 16.1 mph 24.2 mph N/A Snow Light Snow
8:55 PM 14.0 °F -0.8 °F 8.6 °F 79% 30.09 in 7.0 mi North 13.8 mph 19.6 mph N/A Snow Light Snow
9:15 PM 14.0 °F -1.4 °F 5.0 °F 67% 30.10 in 5.0 mi North 15.0 mph - N/A Snow Light Snow
9:35 PM 12.2 °F -5.8 °F 5.0 °F 73% 30.11 in 1.8 mi North 19.6 mph 24.2 mph N/A Snow Light Snow
9:55 PM 12.2 °F -4.8 °F 3.2 °F 67% 30.12 in 7.0 mi North 17.3 mph 25.3 mph N/A Snow Light Snow
10:15 PM 12.2 °F -3.7 °F 3.2 °F 67% 30.13 in 7.0 mi North 15.0 mph - N/A   Overcast
10:35 PM 10.4 °F -7.7 °F -0.4 °F 62% 30.15 in 10.0 mi North 18.4 mph 25.3 mph N/A   Overcast
10:55 PM 10.4 °F -7.2 °F -2.2 °F 57% 30.16 in 10.0 mi North 17.3 mph 25.3 mph N/A   Overcast
11:15 PM 10.4 °F -7.2 °F -2.2 °F 57% 30.17 in 10.0 mi North 17.3 mph 21.9 mph N/A   Overcast
11:35 PM 10.4 °F -7.2 °F -2.2 °F 57% 30.17 in 10.0 mi North 17.3 mph - N/A   Overcast
11:55 PM 8.6 °F -9.5 °F -4.0 °F 57% 30.18 in 10.0 mi North 17.3 mph 25.3 mph N/A   Overcast